Hourly Data Report for November 12, 2003

SHERBROOKE A
QUEBEC

45°26'00.000" N
71°41'00.000" W
241.40 m
7028124
71610
YSC

Download Data

Hourly Data (November 2003)
Hourly Data Report for November 12, 2003
TIME
LST
Temp Definition
°C
Dew Point Definition
°C
Rel Hum Definition
%
Precip. Amount Definition
mm

Wind Dir Definition
10's deg

Wind Spd Definition
km/h
Visibility Definition
km
Stn Press Definition
kPa
Hmdx Definition


Wind Chill Definition


Weather Definition


00:00 3.1 2.1 93   21 7 4.8 98.12     Drizzle
01:00 3.4 2.7 95   23 7 4.8 98.12     Rain
02:00 3.7 2.9 94   22 11 3.4 98.14     Drizzle
03:00 3.9 3.4 97   24 7 3.9 98.09      
04:00 4.3 3.6 95   23 9 5.6 98.09      
05:00 4.2 3.4 95   26 6 3.9 98.11      
06:00 4.1 3.4 95   25 7 4.8 98.10      
07:00 4.3 3.5 95   25 7 6.4 98.14      
08:00 4.7 3.9 95   21 9 8.0 98.19     Fog
09:00 5.3 4.4 94   22 7 16.1 98.21     Cloudy
10:00 5.9 4.6 91   22 9 16.1 98.17     Cloudy
11:00 6.5 5.0 90   23 9 16.1 98.15     Cloudy
12:00 6.9 4.9 87   21 11 24.1 98.10     Cloudy
13:00 7.6 5.0 84   22 7 19.3 98.07     Cloudy
14:00 7.6 5.3 85   24 7 19.3 98.07     Cloudy
15:00 7.6 5.1 84     0 19.3 98.09     Mostly Cloudy
16:00 6.4 4.7 89   21 4 19.3 98.07     Mostly Cloudy
17:00 2.6 1.8 94     0 16.1 98.03     Mostly Cloudy
18:00 3.2 2.5 95   10 4 4.0 98.00      
19:00 4.0 3.1 94   8 6 6.4 97.94      
20:00 4.3 2.9 91   8 9 9.7 97.82      
21:00 4.4 3.2 92   9 7 8.0 97.70      
22:00 3.1 2.4 95   7 6 5.6 97.55      
23:00 2.7 1.8 94   9 7 6.4 97.37      

Notes on Data Quality.

Legend

  • E = Estimated
  • M = Missing
  • NA = Not Available*
  • [empty] = Indicates an unobserved value
Date modified: